Theta_e
349 345 342 338 341 345 352 351 347 339 344 342 338 343 345 347 348 346 353 364 363 364 363 361 359 358 357 359 356 356 358 359 360 360 359 358 359 358 356 355 354 354 357
349 346 342 343 345 346 348 351 350 348 345 343 336 344 347 349 349 348 349 356 364 363 365 362 359 358 358 357 358 359 360 362 362 362 361 361 359 358 356 353 352 354 355
348 349 347 349 348 351 348 350 351 351 351 352 347 348 348 348 350 347 348 349 356 364 364 363 362 361 359 359 359 361 363 364 363 362 361 360 360 358 354 351 353 354 353
351 349 350 347 348 350 349 348 351 347 349 346 346 346 349 352 351 349 349 348 350 353 361 364 363 363 361 361 361 363 364 363 362 362 361 361 359 357 354 352 353 354 353
353 348 346 344 342 344 353 350 347 347 344 344 348 346 340 341 347 349 349 348 346 347 351 360 363 364 364 364 363 363 364 363 362 361 362 361 360 358 356 352 354 354 354
349 348 343 342 344 344 350 349 349 350 347 346 351 343 341 339 340 344 343 347 347 347 346 350 358 360 364 364 364 364 365 365 362 362 361 361 360 358 356 352 352 354 353
351 345 340 339 342 344 352 349 348 344 342 336 336 334 336 339 340 342 341 348 347 348 348 349 353 355 357 363 363 364 366 364 362 362 362 361 359 358 357 353 352 354 354
353 348 347 346 344 345 349 349 347 344 347 336 330 327 323 329 334 341 346 348 346 349 353 352 350 353 351 355 359 364 364 365 362 361 362 361 359 358 357 353 352 354 354
353 340 343 340 342 345 345 347 348 345 342 340 336 326 322 321 326 339 340 346 347 348 350 353 354 353 352 351 358 362 363 362 364 362 361 362 360 358 357 355 353 353 353
353 348 344 339 341 344 342 336 345 349 347 342 340 342 331 329 327 325 333 338 343 344 345 351 343 350 354 352 356 358 361 360 362 363 362 362 361 359 357 356 354 354 353
352 354 350 345 348 346 335 337 347 349 351 346 339 337 331 332 335 332 326 326 339 344 349 348 345 349 355 356 355 356 357 359 359 361 362 363 363 361 359 357 355 353 353
349 352 354 353 351 350 346 347 351 351 350 350 349 343 338 334 337 336 332 331 336 338 344 349 347 351 351 356 360 359 357 357 357 357 359 360 363 363 361 360 358 355 354
346 348 351 351 352 352 351 350 348 350 352 349 349 348 345 345 341 334 330 328 328 331 334 345 348 350 351 348 356 360 359 356 354 353 353 355 358 360 362 362 361 359 357
347 349 349 351 352 354 353 349 349 350 352 352 348 346 344 345 343 338 329 328 326 331 334 335 345 348 346 349 356 360 357 353 351 349 349 350 352 354 356 358 359 360 360
349 350 350 349 352 353 353 352 349 348 350 352 351 346 347 344 343 341 336 336 336 330 328 335 339 349 352 354 356 356 352 351 350 348 347 347 348 349 351 352 353 354 354
349 349 352 350 351 351 352 352 350 349 350 350 350 349 349 347 345 344 345 342 343 332 326 335 339 347 350 353 354 352 352 352 348 347 345 344 344 345 346 348 348 349 350
349 349 349 351 350 350 351 350 349 350 349 347 347 347 346 348 347 344 347 347 345 346 340 339 343 348 347 349 351 350 353 349 348 344 344 343 341 342 343 343 343 344 345
353 350 351 351 351 350 350 350 349 349 346 346 349 348 346 350 346 347 345 344 344 346 339 335 341 341 342 345 348 351 353 353 348 350 343 342 340 340 339 338 338 338 338
350 352 352 349 348 348 350 350 350 349 347 349 349 347 346 348 344 346 347 347 344 347 344 342 340 343 343 345 345 349 351 351 356 350 342 339 338 338 337 335 334 332 329
350 352 351 349 348 349 350 350 349 348 350 350 349 349 349 348 345 347 346 344 346 344 343 342 340 340 342 344 343 340 342 343 343 353 352 347 345 340 336 332 332 331 327
353 352 351 349 349 349 351 350 349 348 349 349 350 351 350 351 349 348 349 346 347 344 343 341 339 340 339 339 339 341 340 342 344 346 343 346 345 341 333 328 331 328 325
352 352 351 350 350 351 345 344 349 349 350 349 347 347 350 350 348 343 342 344 347 343 340 339 337 336 336 340 341 341 339 337 334 347 342 340 341 327 323 320 323 322 320
352 351 351 351 350 351 341 340 344 350 349 348 346 348 348 352 348 349 342 338 338 340 341 342 340 338 338 341 342 343 340 341 339 343 339 332 336 323 321 320 321 320 318
352 351 351 351 350 351 340 336 339 346 349 348 349 349 348 347 346 349 348 344 343 343 338 339 340 341 343 346 347 346 342 340 339 337 334 328 330 325 319 318 321 320 318
343 347 349 351 351 350 335 333 334 338 345 348 349 350 351 350 343 338 347 344 347 346 333 334 335 335 331 333 337 335 333 330 325 325 328 326 326 325 322 317 317 320 317
334 336 336 336 346 351 335 330 331 344 344 345 348 351 340 348 336 332 345 342 339 341 339 333 330 328 328 328 329 330 332 327 324 322 326 321 320 321 320 325 321 314 313
Wind_Speed
6 3 4 3 3 4 1 5 5 6 4 6 6 5 6 5 6 4 4 16 14 15 16 15 14 14 13 11 10 9 9 9 8 8 7 7 5 5 4 3 3 3 4
8 5 7 6 5 5 4 6 7 7 9 8 9 11 11 12 6 7 4 8 14 13 14 15 15 14 13 12 11 10 9 9 8 7 6 7 6 6 6 5 4 4 4
4 8 10 9 6 9 8 4 4 5 4 8 16 15 7 4 6 9 8 5 7 14 14 14 13 13 13 12 11 10 10 9 10 7 7 6 7 7 6 4 5 6 5
6 6 7 6 7 4 3 3 3 3 3 5 5 5 3 4 3 9 7 7 5 6 10 14 15 14 14 13 12 10 9 8 8 7 7 7 9 9 7 6 6 6 5
4 7 3 3 1 4 5 4 3 2 2 1 1 10 11 10 9 10 4 7 7 5 5 11 14 13 15 16 14 11 10 9 9 8 8 9 9 9 7 6 6 6 6
5 6 3 3 3 2 8 3 3 1 1 7 7 9 10 10 7 9 9 8 5 2 5 7 8 8 15 15 14 13 11 11 10 9 9 10 10 10 9 7 7 7 8
5 7 2 1 3 5 6 2 2 2 3 3 6 7 4 4 2 9 9 4 3 5 6 5 6 5 7 15 13 13 12 13 12 11 11 10 9 10 10 8 8 9 9
7 8 7 4 4 4 6 1 3 2 3 2 4 3 2 3 5 5 4 3 7 6 8 9 7 7 5 6 10 15 14 14 14 14 13 12 11 10 10 10 9 9 10
7 8 8 6 6 3 3 1 2 3 2 2 6 5 3 4 3 2 2 1 7 6 8 4 5 6 7 5 9 12 15 13 15 15 16 14 12 11 11 11 11 11 11
7 8 7 7 5 6 11 3 3 1 2 2 3 6 3 4 3 5 4 2 5 8 4 6 6 6 7 6 12 14 16 14 15 16 16 16 14 14 14 14 12 12 12
7 11 7 6 5 6 6 4 2 1 2 3 3 3 3 2 0 3 2 3 6 5 8 8 6 4 7 11 8 11 20 17 15 15 16 16 16 16 15 15 15 15 15
5 6 8 7 6 6 5 4 2 2 2 3 3 4 4 3 3 3 4 4 5 5 6 8 7 7 6 7 10 15 19 18 17 15 14 15 16 16 17 17 17 16 16
4 7 7 6 5 6 6 5 5 5 4 3 3 2 3 3 2 3 3 1 1 3 1 5 8 8 8 5 6 14 18 17 15 15 14 14 14 14 16 16 17 17 18
7 9 8 6 7 7 6 6 4 4 5 4 5 3 2 2 1 1 0 2 4 3 2 1 2 3 3 4 6 12 8 15 16 16 15 14 14 14 15 16 16 16 17
6 8 11 9 7 7 7 7 5 5 5 5 5 5 3 3 3 2 1 2 4 1 3 3 3 5 1 2 6 6 6 12 14 15 15 16 17 17 17 17 16 16 16
9 7 8 10 10 8 7 7 6 6 6 5 4 6 5 3 5 3 3 3 1 4 2 3 2 0 3 2 6 5 6 11 16 16 17 17 17 16 17 17 17 17 18
8 10 8 10 10 8 7 7 7 6 7 7 6 5 5 5 3 3 1 1 1 1 1 3 2 1 2 4 3 3 4 5 5 15 17 15 14 16 18 18 18 18 18
7 9 7 10 11 11 9 9 9 8 7 7 7 6 6 3 5 5 3 3 2 2 3 4 2 1 3 4 4 5 6 5 5 6 12 12 13 16 17 16 13 15 16
8 7 7 9 11 10 9 8 10 9 7 7 7 7 7 6 5 4 4 3 2 1 0 2 2 1 2 1 2 2 2 2 2 2 7 7 10 13 13 13 15 12 7
10 8 9 9 9 8 9 8 10 9 8 8 8 7 7 7 7 7 6 6 4 2 2 1 2 3 1 2 1 1 4 1 3 3 2 4 7 8 4 5 8 8 9
11 10 8 8 9 10 9 10 11 11 10 8 7 7 7 8 11 8 5 6 5 4 3 3 3 2 2 2 3 2 2 3 3 3 3 2 2 4 5 9 8 13 13
12 11 10 9 9 10 14 16 11 8 10 10 10 7 7 10 10 11 13 11 9 6 5 4 3 4 4 4 3 3 3 2 3 1 1 3 2 3 3 3 8 11 10
10 13 13 11 11 12 14 16 18 11 10 10 9 8 7 7 9 7 10 8 8 10 8 6 7 6 5 6 4 3 4 3 3 3 3 2 1 3 2 3 8 8 10
11 11 13 13 12 11 15 16 16 13 11 12 12 11 10 8 7 7 7 7 7 7 8 6 8 8 6 4 4 4 4 3 1 0 1 2 1 2 2 2 5 7 8
3 4 7 11 13 14 15 16 12 8 13 13 12 11 11 9 10 12 7 7 6 6 2 4 5 5 6 8 6 3 2 2 2 1 2 3 1 3 3 3 4 7 8
4 2 12 16 22 16 15 17 15 10 9 7 7 10 16 13 13 14 10 8 7 6 5 4 3 2 5 4 6 4 4 3 3 0 2 3 0 2 1 2 3 4 3
Wind_Direction
117 209 228 279 298 272 219 238 161 160 256 224 266 245 252 265 225 153 165 184 178 173 170 173 178 183 191 195 200 204 210 226 234 232 223 214 210 214 182 200 219 239 224
157 208 63 281 249 253 223 210 207 182 190 209 236 241 254 230 184 144 177 178 177 181 177 179 185 190 193 199 206 211 218 227 236 232 209 218 194 184 180 194 208 176 166
173 143 174 228 258 240 189 177 199 189 211 183 195 216 235 121 158 163 167 167 181 186 184 189 189 193 199 204 213 219 223 230 232 211 212 201 186 182 185 196 193 178 176
187 143 144 176 245 295 168 190 228 246 211 209 203 220 247 342 186 170 156 164 175 197 196 202 200 199 206 208 215 221 221 217 192 204 211 196 189 181 182 191 191 183 180
185 121 140 221 286 350 293 228 231 228 220 71 306 53 34 13 346 15 317 166 167 194 204 216 218 209 209 209 211 215 221 195 188 200 195 187 192 187 189 199 201 197 188
180 118 142 181 25 354 277 203 167 33 286 74 79 70 21 354 11 22 16 336 344 235 205 204 216 222 219 216 208 209 210 191 190 191 189 189 193 191 194 199 202 197 192
164 126 137 6 15 325 260 172 126 102 360 118 136 99 154 198 346 59 279 246 215 275 202 201 210 219 221 223 215 212 208 199 195 195 191 191 197 200 201 205 205 195 199
137 149 154 200 169 270 259 105 90 36 66 343 120 79 110 285 141 179 239 342 323 331 254 205 208 202 213 218 216 211 207 199 201 203 198 195 198 205 197 203 209 205 206
149 147 169 174 192 58 297 338 81 120 116 263 52 127 149 218 288 226 306 117 230 227 262 193 211 224 194 204 208 216 209 201 200 201 202 201 201 205 207 208 212 212 213
163 170 179 194 129 125 244 233 117 208 83 155 274 139 137 133 147 341 52 10 289 280 214 202 204 204 210 197 208 203 207 204 204 203 204 207 206 208 213 214 214 215 217
181 175 190 191 191 193 193 212 48 138 111 150 173 50 53 42 212 129 325 334 295 258 235 212 226 229 213 209 203 187 203 200 203 208 209 209 210 214 218 222 222 221 223
196 192 189 187 188 185 188 215 170 210 204 222 169 171 153 186 226 200 208 193 209 229 204 207 204 210 226 213 195 192 200 199 197 205 211 214 215 216 221 223 226 228 230
194 218 192 188 184 204 186 183 186 206 215 215 270 216 154 191 200 228 145 257 168 299 39 201 213 216 214 183 192 194 197 196 195 203 210 215 217 218 222 227 229 230 232
185 197 207 196 188 186 185 181 190 197 212 223 238 244 286 287 321 303 262 116 339 335 341 238 199 296 193 178 173 170 187 195 199 202 208 215 219 221 224 227 230 232 234
197 190 196 199 198 195 188 182 194 208 204 215 230 243 232 271 292 270 284 188 182 244 299 309 45 260 115 155 169 182 184 206 209 213 211 214 216 220 222 226 228 230 232
210 195 192 191 195 198 194 180 191 207 203 213 206 213 225 240 266 305 346 349 141 189 217 231 282 251 103 132 217 186 207 207 214 216 220 219 220 224 225 226 228 230 231
204 215 195 190 195 193 191 192 197 203 212 210 228 192 201 202 226 257 163 333 350 340 171 298 185 98 177 183 244 270 220 207 203 222 229 227 222 222 227 228 230 233 235
204 204 191 195 192 190 190 198 203 212 214 217 217 205 223 229 228 245 230 238 230 244 165 248 277 288 204 250 228 231 247 222 214 220 232 237 234 233 237 234 235 242 240
199 196 184 186 188 191 189 192 196 204 217 211 208 209 222 211 223 220 216 241 238 273 213 175 275 294 290 3 299 308 342 314 2 258 236 258 259 259 247 237 236 251 278
199 189 187 185 187 184 191 192 196 204 214 214 213 209 209 209 214 222 224 227 233 249 253 218 251 270 240 276 86 44 322 358 286 328 269 245 243 255 327 293 262 248 241
193 189 181 187 192 194 200 201 203 205 207 214 218 214 210 209 207 212 204 225 219 226 220 215 237 228 241 278 221 231 246 264 289 235 265 325 322 68 31 42 49 51 57
196 185 191 191 194 207 204 202 198 198 202 206 218 219 223 217 215 219 220 214 197 198 209 191 215 217 232 210 213 197 224 277 291 4 68 289 17 59 28 53 72 66 66
198 203 204 199 203 209 208 204 208 214 212 211 207 214 222 226 210 225 227 212 223 222 217 194 227 218 226 206 201 203 213 205 226 293 53 293 47 116 128 77 92 98 81
202 207 209 211 213 216 203 211 212 216 216 216 207 203 208 214 209 191 189 194 208 208 214 217 224 239 226 201 218 195 184 208 277 223 99 199 295 117 129 182 157 141 124
5 319 271 219 216 224 209 208 201 210 221 215 206 202 205 208 214 204 200 207 216 219 123 188 200 189 162 169 174 144 197 144 275 221 5 138 286 120 178 212 211 186 147
189 79 291 302 266 226 211 207 200 214 214 204 198 199 203 204 200 204 203 195 211 222 178 175 184 193 192 200 183 182 159 166 188 344 244 117 44 101 268 238 176 190 181